DECAYED

CZ-6A DEB, 56285 (Decayed)

Orbit data source: Space-Track

CZ-6A DEB, 56285 was space debris in SSO originally from a launch on Fri, 11 Nov 2022 UTC launched from the Taiyaun Space Center, China (TSC). Debris objects in space refer to the collection of defunct objects orbiting the Earth. Examples of debris include non-operational satellites, rocket bodies, and fragments generated from explosions, collisions, or faulty payload assembly.

Not visible in the next 10 days
Identifier
56285, 2022-151ADD
Orbit
Decayed
Country
Flag of CNCN / PRC
Related business
Manufacturer
SAST
Mission
Decayed spacecraft
Bus & Motor
Unknown
Mass
Unknown
Launch date (UTC)
2022-11-11 (4 years ago)
Launch vehicle
Unknown
Launch site
Taiyaun Space Center, China (TSC)
Object type
Payload
Rocket body
Debris
Shape & HBR
Unknown shape, 0.1 m
Radar Cross Section
Small (<0.1 m²)

Expand to show TLE details & history
Last TLE update: 1 month ago

TLE from 1 month ago
0 CZ-6A DEB
1 56285U 22151ADD 26137.71643104  .00537280  00000-0  64781-2 0  9995
2 56285  98.6172 233.2868 0026078 265.6586  94.1687 15.58642977182408
Epoch: 2026-05-17T17:11Z
TLE epoch observation values (Epoch: 2026-05-17T17:11:39.641Z)
Latitude
0.00001°
Longitude
99.95658°
Altitude
396.017 km
Speed
7.672 km/s
True Right ascension
15h 33m 08s
True Declination
0° 00' 00"
Sunlit
Object was in full shadow at epoch
Visualization orbit readout
Latitude
Unknown
Longitude
Unknown
Altitude
Unknown
Speed
Unknown
Apparent Right ascension
Unknown
Apparent Declination
Unknown
Sunlit
N/A
Visualization observer readout
Local Sidereal Time
21:38:54
Azimuth
Unknown
Elevation
Unknown
Doppler factor
Unknown
Orbital elements
Apogee altitude
406.201 km
Perigee altitude
370.909 km
Semi-major axis
6,766.692 km
Eccentricity
0.00261
Inclination
98.6172°
RAAN
233.2868°
Arg. of periapsis
265.6586°
True anomaly
94.46667°
Mean anomaly
94.1687°
Eccentric anomaly
94.31769°
Mean motion
3.89923 °/min
Orbital period
92.33 mins
BSTAR
0.0064781
Loading maneuver chart data...
Computing Atmospheric mass density...
Loading historical data...
Loading historical data...
Loading historical data...
Loading historical data...
Loading historical data...
Loading historical data...
Loading historical data...

Documentation

Showing up to 5 results
|